Find Local Weather

World > North America > United States > Colorado

Wiley, Colorado Regional Weather

Lat: 38.16N, Lon: 102.72W
Wx Zone: COZ098
Warning FLW WEATHER ALERT - (More Info. Click Here) Warning
Feedback
Expires:201808142000;;061036
ASUS45 KBOU 141910
RWRCO 

WEATHER ROUNDUP FOR COLORADO
NATIONAL WEATHER SERVICE DENVER/BOULDER CO
100 PM MDT TUE AUG 14 2018

NOTE: "FAIR" INDICATES FEW OR NO CLOUDS BELOW 12000 FEET WITH NO
SIGNIFICANT WEATHER AND/OR OBSTRUCTIONS TO VISIBILITY.


COZ086-089-092>099-142000-
...SOUTHEAST COLORADO...
  
CITY           SKY/WX    TMP DP  RH WIND       PRES   REMARKS
PUEBLO         FAIR      82  57  42 S8        30.08F                  
LA JUNTA       FAIR      77  62  59 VRB3      30.08F                  
LAMAR          PTSUNNY   78  61  55 NE5       30.03F                  
SPRINGFIELD      N/A     76  62  62 N13       30.07F                  
$$
  

SKY/WX - Weather  TMP - Temperature  DP - Dewpoint  RH - Relative Humidity
WIND - Wind Direction/Speed PRES - Barometric Pressure